Flag for Germany Weather past 2 weeks in Steinfurt, North Rhine-Westphalia, Germany

Now
52 °F

Cool.


Feels Like: 49 °F
Forecast: 49 / 58 °F
Wind: 8 mph from South

Location: Rheine-Bentlage

Current Time: May 6, 2015 at 11:41:08 PM

Latest Report: May 6, 2015 at 10:20 PM


Visibility: N/A

Pressure: 29.86 "Hg

Humidity: 72%

Dew point: 43 °F

Location of SteinfurtLocation

Historic Weather in Steinfurt — Graph

°F

Steinfurt temperature yesterday

Maximum temperature yesterday: 75 °F (at 3:01 PM)
Minimum temperature yesterday: 48 °F (at 11:20 PM)
Average temperature yesterday: 62 °F

Past Weeks' High & Low Weather Summary

 TemperatureHumidityPressure
High75 °F (May 5, 3:01 PM)100% (Apr 23, 3:20 AM)30.48 "Hg (Apr 23, 3:20 AM)
Low30 °F (Apr 28, 4:20 AM)33% (Apr 24, 5:20 PM)29.39 "Hg (May 5, 6:20 AM)
Average51 °F71%29.86 "Hg
* Reported Apr 21 9:20 PM — May 6 9:20 PM, Steinfurt, Weather by CustomWeather, © 2015

Note: Actual official high and low records may vary slightly from our data, if they occured in-between our weather recording intervals... More about our weather records

Advertising

Steinfurt weather history for previous 24 hours

 ConditionsComfort  
Time TempWeatherWind HumidityBarometerVisibility
9:20 PM
Wed, May 6
52 °FCool.8 mph72%29.83 "HgN/A
8:20 PM54 °FCool.8 mph63%29.83 "HgN/A
7:20 PM54 °FCool.7 mph63%29.83 "HgN/A
6:20 PM54 °FCool.20 mph72%29.86 "HgN/A
5:20 PM61 °FRefreshingly cool.14 mph48%29.80 "HgN/A
4:20 PM61 °FRefreshingly cool.13 mph52%29.77 "HgN/A
3:20 PM59 °FScattered clouds.8 mph59%29.80 "HgN/A
2:20 PM61 °FScattered clouds.14 mph48%29.80 "HgN/A
1:20 PM61 °FScattered clouds.10 mph52%29.80 "HgN/A
12:20 PM59 °FScattered clouds.13 mph51%29.83 "HgN/A
11:20 AM57 °FScattered clouds.13 mph59%29.83 "HgN/A
10:20 AM57 °FPassing clouds.9 mph59%29.83 "HgN/A
9:20 AM57 °FPassing clouds.7 mph63%29.83 "HgN/A
8:20 AM54 °FCool.9 mph67%29.83 "HgN/A
7:20 AM52 °FPassing clouds.7 mph72%29.80 "HgN/A
6:20 AM50 °FPassing clouds.5 mph76%29.80 "HgN/A
5:20 AM50 °FPassing clouds.3 mph76%29.80 "HgN/A
4:20 AM50 °FCool.3 mph76%29.80 "HgN/A
3:20 AM50 °FCool.6 mph71%29.80 "HgN/A
2:20 AM52 °FCool.6 mph67%29.80 "HgN/A
1:20 AM50 °FCool.3 mph71%29.77 "HgN/A
12:20 AM50 °FCool.3 mph71%29.77 "HgN/A
11:20 PM
Tue, May 5
48 °FCool.2 mph76%29.77 "HgN/A
Weather by CustomWeather, © 2015

See weather overviewHow to use our weather pages